Terminal Aerodrome Forecast
Issued by NWS

Current Version | Previous Version | Graphics & Text | Print | Product List | Glossary On
Versions: 1 2 3 4 5 6 7 8 9 10 11 12 13 14 15 16 17 18
000
FTUS41 KILN 171100
TAFLUK
TAF
KLUK 171130Z 1712/1812 VRB03KT P6SM BKN250
     FM171400 19008KT P6SM BKN250
     FM180000 VRB03KT P6SM BKN200
     FM180800 VRB03KT P6SM BKN050=

USA.gov is the U.S. government's official web portal to all federal, state and local government web resources and services.